Houston Hull, TX

11:52 PM CDT on October 16, 2017 (GMT -0500)
Sugar Land Municipal-Hull

Weather History for KSGR - October, 2011

Change the Weather History Date:

Monday, October 17, 2011

  Actual Average Record
Temperature  
Mean Temperature 76 °F -  
Max Temperature 89 °F 82 °F 93 °F (1947)
Min Temperature 64 °F 59 °F 42 °F (2001)
Cooling Degree Days 12    
Growing Degree Days 26 (Base 50)    
Moisture  
Dew Point 65 °F    
Average Humidity 84    
Maximum Humidity 100    
Minimum Humidity 39    
Precipitation  
Precipitation 0.02 in - - ()
Sea Level Pressure  
Sea Level Pressure 29.90 in    
Wind  
Wind Speed 2 mph (South)    
Max Wind Speed 12 mph    
Max Gust Speed -    
Visibility 5 miles    
Events Fog    
Averages and records for this station are not official NWS values.
T = Trace of Precipitation, MM = Missing Value Source: NWS Daily Summary

Daily Weather History Graph

Daily Weather History Graph

Search for Another Location

Airport or City:

Trip Planner

Search our weather history database for the weather conditions in past years. The results will help you decide how hot, cold, wet, or windy it might be!

Date:

Astronomy

Oct. 17, 2011 Rise Set
Actual Time 7:25 AM CDT 6:50 PM CDT
Civil Twilight 7:01 AM CDT 7:14 PM CDT
Nautical Twilight 6:33 AM CDT 7:42 PM CDT
Astronomical Twilight 6:05 AM CDT 8:09 PM CDT
Moon 10:49 PM CDT 12:14 PM CDT
Length of Visible Light 12h 12m
Length of Day
11h 24m
Waning Gibbous, 74% of the Moon is Illuminated
Oct 17
Waning Gibbous
Oct 19
Last Quarter
Oct 26
New
Nov 2
First Quarter
Nov 10
Full

Hourly Weather History & Observations

Time (CDT) Temp. Heat Index Dew Point Humidity Pressure Visibility Wind Dir Wind Speed Gust Speed Precip Events Conditions
12:45 AM 69.8 °F - 68.0 °F 94% 29.98 in 1.8 mi Calm Calm - N/A   Partly Cloudy
12:53 AM 69.1 °F - 68.0 °F 96% 30.01 in 0.8 mi Calm Calm - N/A   Scattered Clouds
1:04 AM 66.2 °F - 66.2 °F 100% 29.98 in 2.0 mi Calm Calm - N/A   Partly Cloudy
1:13 AM 68.0 °F - 66.2 °F 94% 29.98 in 4.0 mi Calm Calm - N/A   Partly Cloudy
1:31 AM 69.8 °F - 68.0 °F 94% 29.97 in 1.8 mi Calm Calm - 0.02 in   Partly Cloudy
1:34 AM 68.0 °F - 68.0 °F 100% 29.97 in 0.8 mi Calm Calm - 0.02 in   Mist
1:39 AM 66.2 °F - 66.2 °F 100% 29.97 in 0.2 mi Calm Calm - 0.02 in Fog Fog
1:53 AM 66.9 °F - 66.0 °F 97% 30.00 in 0.2 mi Calm Calm - 0.02 in Fog Fog
3:02 AM 66.2 °F - 64.4 °F 94% 29.96 in 0.8 mi Calm Calm - N/A   Mist
3:05 AM 66.2 °F - 64.4 °F 94% 29.96 in 2.5 mi Calm Calm - N/A   Overcast
3:12 AM 66.2 °F - 66.2 °F 100% 29.96 in 5.0 mi Calm Calm - N/A   Mostly Cloudy
3:14 AM 66.2 °F - 66.2 °F 100% 29.96 in 1.0 mi Calm Calm - N/A   Mist
3:16 AM 66.2 °F - 64.4 °F 94% 29.96 in 0.5 mi Calm Calm - N/A Fog Fog
3:24 AM 64.4 °F - 64.4 °F 100% 29.96 in 0.2 mi Calm Calm - N/A Fog Fog
3:31 AM 64.4 °F - 64.4 °F 100% 29.96 in 0.2 mi Calm Calm - N/A Fog Fog
3:43 AM 64.4 °F - 64.4 °F 100% 29.96 in 0.2 mi Calm Calm - N/A Fog Fog
3:53 AM 64.9 °F - 64.0 °F 97% 29.98 in 0.2 mi Calm Calm - N/A Fog Fog
5:53 AM 64.9 °F - 64.9 °F 100% 29.97 in 0.2 mi Calm Calm - N/A Fog Fog
1:53 PM 87.1 °F 87.8 °F 63.0 °F 44% 29.86 in 10.0 mi Variable 6.9 mph - N/A   Partly Cloudy
2:53 PM 89.1 °F 89.0 °F 61.0 °F 39% 29.82 in 10.0 mi South 10.4 mph - N/A   Clear
3:53 PM 88.0 °F 87.6 °F 60.1 °F 39% 29.79 in 10.0 mi South 10.4 mph - N/A   Clear
4:53 PM 88.0 °F 87.6 °F 60.1 °F 39% 29.78 in 10.0 mi South 11.5 mph - N/A   Clear
5:53 PM 86.0 °F 86.3 °F 62.1 °F 44% 29.78 in 10.0 mi SSW 9.2 mph - N/A   Clear
6:53 PM 80.1 °F 81.9 °F 64.9 °F 60% 29.78 in 10.0 mi SSE 10.4 mph - N/A   Clear
7:53 PM 77.0 °F - 66.9 °F 71% 29.79 in 10.0 mi South 10.4 mph - N/A   Clear
8:53 PM 73.9 °F - 66.9 °F 79% 29.81 in 10.0 mi SSE 9.2 mph - N/A   Clear
9:53 PM 73.9 °F - 68.0 °F 82% 29.79 in 10.0 mi South 11.5 mph - N/A   Clear
10:53 PM 73.0 °F - 68.0 °F 84% 29.77 in 10.0 mi South 8.1 mph - N/A   Clear
11:53 PM 72.0 °F - 68.0 °F 87% 29.75 in 10.0 mi South 8.1 mph - N/A   Clear